• In Hungary
  • List of Countries
  • For 7 days
  • Water Temperature
  • Satellite Maps
  • Weather Map
  • News
  • Weather Widgets
  • user-avatar
    Login

    Hourly Weather Popondetta

    Today, 15 November, Thursday

    Time Temperature Precipitation Wind Pressure Humidity
    00:00 +27°C° 0.3 mm 1 mps 748 mmHg 92%
    01:00 +26°C° 0.3 mm 1 mps 748 mmHg 92%
    02:00 +26°C° 0.4 mm 1 mps 747 mmHg 92%
    03:00 +26°C° 0.4 mm 1 mps 747 mmHg 92%
    04:00 +26°C° 0 mm 1 mps 747 mmHg 91%
    05:00 +26°C° 0.1 mm 1 mps 747 mmHg 89%
    06:00 +27°C° 0.1 mm 1 mps 748 mmHg 86%
    07:00 +28°C° 0.1 mm 1 mps 748 mmHg 84%
    08:00 +30°C° 0 mm 1 mps 748 mmHg 73%
    09:00 +32°C° 0 mm 1 mps 748 mmHg 63%
    10:00 +34°C° 0 mm 1 mps 749 mmHg 56%
    11:00 +35°C° 0.1 mm 2 mps 748 mmHg 56%
    12:00 +35°C° 0.1 mm 2 mps 747 mmHg 56%
    13:00 +35°C° 0.1 mm 2 mps 747 mmHg 55%
    14:00 +34°C° 0.3 mm 2 mps 747 mmHg 59%
    15:00 +34°C° 0.3 mm 2 mps 746 mmHg 63%
    16:00 +31°C° 0 mm 3 mps 746 mmHg 73%
    17:00 +30°C° 0.3 mm 2 mps 747 mmHg 79%
    18:00 +29°C° 0.3 mm 2 mps 747 mmHg 84%
    19:00 +27°C° 0.3 mm 2 mps 747 mmHg 89%
    20:00 +27°C° 0.9 mm 2 mps 747 mmHg 90%
    21:00 +27°C° 0.9 mm 2 mps 748 mmHg 91%
    22:00 +27°C° 0.9 mm 2 mps 748 mmHg 91%
    23:00 +27°C° 0.8 mm 2 mps 748 mmHg 91%

    Tomorrow, 16 November, Friday

    Time Temperature Precipitation Wind Pressure Humidity
    00:00 +27°C° 0.8 mm 2 mps 748 mmHg 91%
    01:00 +26°C° 0.8 mm 2 mps 748 mmHg 91%
    02:00 +26°C° 0.4 mm 2 mps 748 mmHg 91%
    03:00 +26°C° 0.4 mm 1 mps 747 mmHg 91%
    04:00 +26°C° 0.4 mm 1 mps 747 mmHg 91%
    05:00 +26°C° 0.4 mm 1 mps 747 mmHg 88%
    06:00 +27°C° 0.4 mm 1 mps 748 mmHg 85%
    07:00 +28°C° 0.4 mm 1 mps 748 mmHg 83%
    08:00 +30°C° 0.1 mm 1 mps 748 mmHg 72%
    09:00 +32°C° 0.1 mm 1 mps 748 mmHg 62%
    10:00 +35°C° 0.1 mm 1 mps 748 mmHg 51%
    11:00 +35°C° 0.1 mm 2 mps 747 mmHg 54%
    12:00 +35°C° 0.1 mm 2 mps 747 mmHg 56%
    13:00 +35°C° 0.1 mm 3 mps 746 mmHg 59%
    14:00 +34°C° 0.7 mm 3 mps 746 mmHg 64%
    15:00 +33°C° 0.7 mm 3 mps 746 mmHg 69%
    16:00 +31°C° 0.7 mm 3 mps 745 mmHg 74%
    17:00 +30°C° 1.2 mm 2 mps 746 mmHg 79%
    18:00 +29°C° 1.2 mm 2 mps 746 mmHg 85%
    19:00 +28°C° 1.2 mm 2 mps 746 mmHg 90%
    20:00 +27°C° 1.1 mm 2 mps 747 mmHg 91%
    21:00 +27°C° 1.1 mm 2 mps 747 mmHg 91%
    22:00 +27°C° 1.1 mm 1 mps 748 mmHg 92%
    23:00 +27°C° 0.7 mm 1 mps 747 mmHg 92%

    Day after tomorrow, 17 November, Saturday

    Time Temperature Precipitation Wind Pressure Humidity
    00:00 +27°C° 0.7 mm 1 mps 747 mmHg 92%
    01:00 +27°C° 0.7 mm 1 mps 747 mmHg 92%
    02:00 +26°C° 0.3 mm 1 mps 746 mmHg 92%
    03:00 +26°C° 0.3 mm 1 mps 746 mmHg 92%
    04:00 +26°C° 0.3 mm 1 mps 746 mmHg 92%
    05:00 +26°C° 0.1 mm 1 mps 746 mmHg 90%
    06:00 +27°C° 0.1 mm 1 mps 747 mmHg 87%
    07:00 +27°C° 0.1 mm 1 mps 747 mmHg 85%
    08:00 +29°C° 0.4 mm 1 mps 747 mmHg 77%
    09:00 +31°C° 0.4 mm 1 mps 748 mmHg 69%
    10:00 +33°C° 0.4 mm 1 mps 748 mmHg 62%
    11:00 +33°C° 0.7 mm 1 mps 747 mmHg 65%
    12:00 +32°C° 0.7 mm 2 mps 747 mmHg 68%
    13:00 +32°C° 0.7 mm 2 mps 746 mmHg 72%
    14:00 +32°C° 0.6 mm 2 mps 746 mmHg 73%
    15:00 +31°C° 0.6 mm 2 mps 745 mmHg 74%
    16:00 +31°C° 0.6 mm 2 mps 745 mmHg 75%
    17:00 +30°C° 1.1 mm 2 mps 745 mmHg 80%
    18:00 +28°C° 1.1 mm 1 mps 746 mmHg 86%
    19:00 +27°C° 1.1 mm 1 mps 746 mmHg 91%
    20:00 +27°C° 0.7 mm 1 mps 747 mmHg 91%
    21:00 +27°C° 0.7 mm 1 mps 747 mmHg 91%
    22:00 +27°C° 0.7 mm 1 mps 748 mmHg 91%
    23:00 +27°C° 0.7 mm 1 mps 747 mmHg 91%

    18 November, Sunday

    Time Temperature Precipitation Wind Pressure Humidity
    00:00 +27°C° 0.7 mm 1 mps 747 mmHg 91%
    01:00 +27°C° 0.7 mm 1 mps 746 mmHg 91%
    02:00 +26°C° 0.7 mm 1 mps 746 mmHg 91%
    03:00 +26°C° 0.7 mm 1 mps 746 mmHg 91%
    04:00 +26°C° 0.7 mm 1 mps 746 mmHg 91%
    05:00 +27°C° 0.7 mm 1 mps 746 mmHg 90%
    06:00 +27°C° 0.7 mm 1 mps 747 mmHg 88%
    07:00 +27°C° 0.7 mm 1 mps 747 mmHg 87%
    08:00 +29°C° 0.5 mm 1 mps 747 mmHg 81%
    09:00 +30°C° 0.5 mm 1 mps 747 mmHg 74%
    10:00 +32°C° 0.5 mm 1 mps 747 mmHg 68%
    11:00 +32°C° 0.5 mm 1 mps 747 mmHg 69%
    12:00 +32°C° 0.5 mm 2 mps 747 mmHg 70%
    13:00 +32°C° 0.5 mm 2 mps 746 mmHg 71%
    14:00 +31°C° 1.1 mm 2 mps 746 mmHg 75%
    15:00 +30°C° 1.1 mm 2 mps 745 mmHg 79%
    16:00 +30°C° 1.1 mm 2 mps 745 mmHg 83%
    17:00 +29°C° 1 mm 1 mps 746 mmHg 86%
    18:00 +28°C° 1 mm 1 mps 746 mmHg 89%
    19:00 +27°C° 1 mm 1 mps 747 mmHg 92%
    20:00 +27°C° 0.9 mm 1 mps 747 mmHg 92%
    21:00 +27°C° 0.9 mm 1 mps 748 mmHg 93%
    22:00 +26°C° 0.9 mm 1 mps 748 mmHg 93%
    23:00 +26°C° 0.9 mm 1 mps 748 mmHg 93%

    19 November, Monday

    Time Temperature Precipitation Wind Pressure Humidity
    00:00 +24°C° 0.9 mm 0 mps 747 mmHg 93%
    01:00 +24°C° 0.9 mm 0 mps 747 mmHg 93%
    02:00 +26°C° 0.6 mm 1 mps 747 mmHg 92%
    03:00 +26°C° 0.6 mm 1 mps 746 mmHg 92%
    04:00 +26°C° 0.6 mm 1 mps 746 mmHg 92%
    05:00 +26°C° 0.4 mm 1 mps 747 mmHg 90%
    06:00 +27°C° 0.4 mm 1 mps 747 mmHg 89%
    07:00 +27°C° 0.4 mm 1 mps 748 mmHg 87%
    08:00 +29°C° 0.1 mm 1 mps 748 mmHg 79%
    09:00 +31°C° 0.1 mm 1 mps 748 mmHg 70%
    10:00 +32°C° 0.1 mm 2 mps 748 mmHg 62%
    11:00 +32°C° 0.5 mm 2 mps 748 mmHg 66%
    12:00 +33°C° 0.5 mm 3 mps 747 mmHg 70%
    13:00 +31°C° 0.5 mm 3 mps 747 mmHg 74%
    14:00 +30°C° 0.7 mm 3 mps 746 mmHg 79%
    15:00 +29°C° 0.7 mm 2 mps 746 mmHg 84%
    16:00 +28°C° 0.7 mm 2 mps 746 mmHg 89%
    17:00 +27°C° 0.3 mm 2 mps 746 mmHg 91%
    18:00 +27°C° 0.3 mm 1 mps 747 mmHg 93%
    19:00 +26°C° 0.3 mm 1 mps 747 mmHg 95%
    20:00 +26°C° 0.4 mm 1 mps 748 mmHg 95%
    21:00 +26°C° 0.4 mm 1 mps 748 mmHg 95%
    22:00 +26°C° 0.4 mm 1 mps 748 mmHg 95%
    23:00 +26°C° 0 mm 1 mps 748 mmHg 95%

    20 November, Tuesday

    Time Temperature Precipitation Wind Pressure Humidity
    00:00 +26°C° 0 mm 1 mps 747 mmHg 94%
    01:00 +26°C° 0 mm 1 mps 747 mmHg 93%
    02:00 +25°C° 0 mm 1 mps 747 mmHg 93%
    03:00 +23°C° 0 mm 0 mps 747 mmHg 92%
    04:00 +23°C° 0 mm 0 mps 747 mmHg 92%
    05:00 +24°C° 0 mm 0 mps 747 mmHg 90%
    06:00 +24°C° 0 mm 0 mps 748 mmHg 88%
    07:00 +25°C° 0 mm 0 mps 748 mmHg 86%
    08:00 +29°C° 0 mm 1 mps 748 mmHg 76%
    09:00 +31°C° 0 mm 1 mps 748 mmHg 67%
    10:00 +33°C° 0 mm 1 mps 748 mmHg 58%
    11:00 +33°C° 0.5 mm 1 mps 748 mmHg 63%
    12:00 +32°C° 0.5 mm 2 mps 747 mmHg 68%
    13:00 +32°C° 0.5 mm 2 mps 746 mmHg 74%
    14:00 +31°C° 0.8 mm 2 mps 746 mmHg 75%
    15:00 +31°C° 0.8 mm 2 mps 746 mmHg 77%
    16:00 +30°C° 0.8 mm 2 mps 745 mmHg 79%
    17:00 +29°C° 0.3 mm 1 mps 746 mmHg 83%
    18:00 +28°C° 0.3 mm 1 mps 747 mmHg 87%
    19:00 +27°C° 0.3 mm 1 mps 747 mmHg 92%
    20:00 +27°C° 0.1 mm 1 mps 748 mmHg 92%
    21:00 +27°C° 0.1 mm 1 mps 748 mmHg 93%
    22:00 +27°C° 0.1 mm 1 mps 748 mmHg 93%
    23:00 +24°C° 0.1 mm 0 mps 748 mmHg 93%
    Show more